Weather History for Kimball, NE

Change the Weather History Date:

Wednesday, November 21, 2012

  Actual Average (KSNY) Record (KSNY)
Temperature  
Mean Temperature 51 °F 35 °F  
Max Temperature 71 °F 48 °F 72 °F (1960)
Min Temperature 31 °F 22 °F -4 °F (1977)
Degree Days  
Heating Degree Days 14 30  
Month to date heating degree days 532  
Since 1 July heating degree days 1135  
Cooling Degree Days 0 0  
Month to date cooling degree days 0  
Year to date cooling degree days 830  
Growing Degree Days 1 (Base 50)    
Moisture  
Dew Point 21 °F    
Average Humidity 43    
Maximum Humidity 72    
Minimum Humidity 11    
Precipitation  
Precipitation 0.00 in 0.02 in 1.22 in (1979)
Month to date precipitation 0.41  
Year to date precipitation 17.84  
Sea Level Pressure  
Sea Level Pressure 29.94 in    
Wind  
Wind Speed 8 mph (WSW)    
Max Wind Speed 14 mph    
Max Gust Speed 17 mph    
Visibility 10 miles    
Events      
T = Trace of Precipitation, MM = Missing Value Source: NWS Daily Summary

Daily Weather History Graph

Daily Weather History Graph

Search for Another Location

Airport:

Trip Planner

Search our weather history database for the weather conditions in past years. The results will help you decide how hot, cold, wet, or windy it might be!

Date:

Astronomy

Nov. 21, 2012 Rise Set
Actual Time 7:50 AM CST 5:30 PM CST
Civil Twilight 7:20 AM CST 6:00 PM CST
Nautical Twilight 6:46 AM CST 6:34 PM CST
Astronomical Twilight 6:13 AM CST 7:07 PM CST
Moon 1:51 PM CST (11/21) 1:08 AM CST (11/21)
Length of Visible Light 10h 40m
Length of Day
9h 40m
First Quarter, 62% of the Moon is Illuminated
Nov 21
First Quarter
Nov 28
Full
Dec 6
Last Quarter
Dec 13
New
Dec 19
First Quarter

Hourly Weather History & Observations

Time (CST) Temp. Windchill Dew Point Humidity Pressure Visibility Wind Dir Wind Speed Gust Speed Precip Events Conditions
12:15 AM 33.6 °F 26.2 °F 23.5 °F 67% 30.05 in 10.0 mi WSW 9.2 mph - N/A   Clear
12:35 AM 34.9 °F 28.3 °F 23.5 °F 63% 30.04 in 10.0 mi SW 8.1 mph - N/A   Clear
12:55 AM 33.6 °F 25.6 °F 23.7 °F 67% 30.04 in 10.0 mi West 10.4 mph - N/A   Clear
1:15 AM 35.4 °F 28.4 °F 23.9 °F 63% 30.03 in 10.0 mi WSW 9.2 mph - N/A   Clear
1:35 AM 34.3 °F 27.7 °F 23.9 °F 66% 30.03 in 10.0 mi West 8.1 mph - N/A   Clear
1:55 AM 32.9 °F 24.7 °F 23.4 °F 68% 30.02 in 10.0 mi West 10.4 mph - N/A   Clear
2:15 AM 34.9 °F 29.0 °F 23.7 °F 64% 30.02 in 10.0 mi West 6.9 mph - N/A   Clear
2:35 AM 32.4 °F 26.9 °F 23.4 °F 69% 30.02 in 10.0 mi West 5.8 mph - N/A   Clear
2:55 AM 33.3 °F 27.9 °F 23.9 °F 69% 30.02 in 10.0 mi West 5.8 mph - N/A   Clear
3:15 AM 32.9 °F 25.3 °F 23.9 °F 69% 30.02 in 10.0 mi West 9.2 mph - N/A   Clear
3:35 AM 32.5 °F 25.5 °F 24.3 °F 72% 30.02 in 10.0 mi WNW 8.1 mph - N/A   Clear
3:55 AM 32.0 °F 24.2 °F 23.9 °F 72% 30.02 in 10.0 mi West 9.2 mph - N/A   Clear
4:15 AM 32.4 °F 26.9 °F 23.7 °F 70% 30.01 in 10.0 mi WSW 5.8 mph - N/A   Clear
4:35 AM 33.1 °F 27.7 °F 23.9 °F 69% 30.01 in 10.0 mi WNW 5.8 mph - N/A   Clear
4:55 AM 32.7 °F 27.3 °F 23.7 °F 69% 30.01 in 10.0 mi NNW 5.8 mph - N/A   Clear
5:15 AM 32.4 °F 25.3 °F 24.1 °F 72% 30.01 in 10.0 mi NW 8.1 mph - N/A   Clear
5:35 AM 34.0 °F 27.2 °F 23.9 °F 67% 30.00 in 10.0 mi WNW 8.1 mph - N/A   Clear
5:55 AM 33.3 °F 24.1 °F 23.2 °F 67% 30.01 in 10.0 mi WNW 12.7 mph - N/A   Clear
6:15 AM 36.9 °F 29.1 °F 22.8 °F 57% 30.00 in 10.0 mi WNW 11.5 mph - N/A   Clear
6:35 AM 35.6 °F 30.7 °F 21.9 °F 58% 29.99 in 10.0 mi West 5.8 mph - N/A   Clear
6:55 AM 31.8 °F 27.3 °F 22.1 °F 67% 29.99 in 10.0 mi WNW 4.6 mph - N/A   Clear
7:15 AM 32.2 °F 23.8 °F 22.3 °F 67% 29.99 in 10.0 mi WSW 10.4 mph - N/A   Clear
7:35 AM 32.4 °F 26.0 °F 22.1 °F 66% 29.99 in 10.0 mi West 6.9 mph - N/A   Clear
7:55 AM 32.5 °F 26.2 °F 22.1 °F 65% 29.99 in 10.0 mi WNW 6.9 mph - N/A   Clear
8:15 AM 32.0 °F 24.8 °F 22.8 °F 69% 29.99 in 10.0 mi WSW 8.1 mph - N/A   Clear
8:35 AM 35.6 °F 28.6 °F 23.5 °F 62% 29.99 in 10.0 mi WSW 9.2 mph - N/A   Clear
8:55 AM 41.0 °F 39.0 °F 24.8 °F 53% 29.98 in 10.0 mi NW 3.5 mph - N/A   Clear
9:15 AM 43.2 °F 41.5 °F 24.8 °F 48% 29.99 in 10.0 mi NW 3.5 mph - N/A   Clear
9:35 AM 46.0 °F 41.9 °F 23.7 °F 42% 29.98 in 10.0 mi West 8.1 mph - N/A   Clear
9:55 AM 50.2 °F - 24.6 °F 37% 29.98 in 10.0 mi SW 3.5 mph - N/A   Clear
10:15 AM 54.0 °F - 25.3 °F 33% 29.98 in 10.0 mi WSW 5.8 mph - N/A   Clear
10:35 AM 60.3 °F - 24.1 °F 25% 29.98 in 10.0 mi SW 6.9 mph - N/A   Clear
10:55 AM 63.5 °F - 22.3 °F 21% 29.98 in 10.0 mi SSW 8.1 mph - N/A   Clear
11:15 AM 65.5 °F - 21.7 °F 19% 29.98 in 10.0 mi SW 5.8 mph - N/A   Clear
11:35 AM 66.7 °F - 20.7 °F 17% 29.97 in 10.0 mi SW 8.1 mph - N/A   Clear
11:55 AM 67.6 °F - 16.5 °F 14% 29.96 in 10.0 mi WSW 9.2 mph - N/A   Clear
12:15 PM 68.2 °F - 16.7 °F 14% 29.94 in 10.0 mi WSW 9.2 mph - N/A   Clear
12:35 PM 69.8 °F - 16.2 °F 13% 29.93 in 10.0 mi SW 10.4 mph - N/A   Clear
12:55 PM 70.5 °F - 16.0 °F 12% 29.91 in 10.0 mi SSW 12.7 mph - N/A   Clear
1:15 PM 70.7 °F - 15.4 °F 12% 29.90 in 10.0 mi SW 8.1 mph - N/A   Clear
1:35 PM 71.1 °F - 14.5 °F 11% 29.89 in 10.0 mi WSW 11.5 mph - N/A   Clear
1:55 PM 71.2 °F - 13.1 °F 11% 29.88 in 10.0 mi SW 11.5 mph 17.3 mph N/A   Clear
2:15 PM 71.4 °F - 12.7 °F 11% 29.88 in 10.0 mi WSW 12.7 mph 17.3 mph N/A   Clear
2:35 PM 71.1 °F - 12.7 °F 11% 29.87 in 10.0 mi SW 13.8 mph - N/A   Clear
2:55 PM 70.7 °F - 14.0 °F 11% 29.86 in 10.0 mi WSW 9.2 mph - N/A   Clear
3:15 PM 69.3 °F - 13.5 °F 12% 29.86 in 10.0 mi WSW 10.4 mph - N/A   Clear
3:35 PM 69.1 °F - 14.0 °F 12% 29.86 in 10.0 mi WSW 9.2 mph - N/A   Clear
3:55 PM 67.8 °F - 15.8 °F 14% 29.86 in 10.0 mi WSW 5.8 mph - N/A   Clear
4:15 PM 64.4 °F - 17.1 °F 16% 29.86 in 10.0 mi WSW 3.5 mph - N/A   Clear
4:35 PM 61.0 °F - 19.2 °F 20% 29.86 in 10.0 mi SW 6.9 mph - N/A   Clear
4:55 PM 60.8 °F - 15.8 °F 17% 29.86 in 10.0 mi SW 4.6 mph - N/A   Clear
5:15 PM 59.0 °F - 16.3 °F 19% 29.86 in 10.0 mi SW 3.5 mph - N/A   Clear
5:35 PM 58.3 °F - 16.3 °F 19% 29.86 in 10.0 mi WSW 4.6 mph - N/A   Clear
5:55 PM 55.0 °F - 16.3 °F 22% 29.86 in 10.0 mi WSW 5.8 mph - N/A   Clear
6:15 PM 45.7 °F 40.6 °F 19.2 °F 35% 29.86 in 10.0 mi WSW 10.4 mph - N/A   Clear
6:35 PM 45.1 °F 40.3 °F 19.9 °F 37% 29.86 in 10.0 mi WSW 9.2 mph - N/A   Clear
6:55 PM 44.8 °F 39.4 °F 19.6 °F 37% 29.86 in 10.0 mi WSW 10.4 mph - N/A   Clear
7:15 PM 43.3 °F 37.7 °F 20.3 °F 40% 29.86 in 10.0 mi WSW 10.4 mph - N/A   Clear
7:35 PM 40.1 °F 38.0 °F 20.8 °F 46% 29.86 in 10.0 mi WNW 3.5 mph - N/A   Clear
7:55 PM 42.8 °F 37.5 °F 21.4 °F 43% 29.86 in 10.0 mi WNW 9.2 mph - N/A   Clear
8:15 PM 43.0 °F 38.2 °F 21.2 °F 42% 29.86 in 10.0 mi West 8.1 mph - N/A   Clear
8:35 PM 43.3 °F 39.9 °F 21.0 °F 41% 29.87 in 10.0 mi WNW 5.8 mph - N/A   Clear
8:55 PM 44.6 °F 41.4 °F 21.2 °F 39% 29.86 in 10.0 mi WNW 5.8 mph - N/A   Clear
9:15 PM 41.5 °F 38.6 °F 22.1 °F 46% 29.86 in 10.0 mi West 4.6 mph - N/A   Clear
9:35 PM 43.2 °F 38.4 °F 21.9 °F 43% 29.86 in 10.0 mi WSW 8.1 mph - N/A   Clear
9:55 PM 43.2 °F 39.0 °F 22.3 °F 44% 29.86 in 10.0 mi WNW 6.9 mph - N/A   Clear
10:15 PM 41.7 °F 39.8 °F 22.6 °F 47% 29.87 in 10.0 mi West 3.5 mph - N/A   Clear
10:35 PM 44.4 °F - 21.7 °F 41% 29.87 in 10.0 mi Calm Calm - N/A   Clear
10:55 PM 42.4 °F - 21.6 °F 44% 29.87 in 10.0 mi Calm Calm - N/A   Clear
11:15 PM 39.4 °F 36.1 °F 22.6 °F 51% 29.87 in 10.0 mi NW 4.6 mph - N/A   Clear
11:35 PM 39.2 °F 32.0 °F 22.8 °F 52% 29.87 in 10.0 mi West 11.5 mph - N/A   Clear
11:55 PM 41.0 °F 34.7 °F 21.6 °F 46% 29.87 in 10.0 mi WSW 10.4 mph - N/A   Clear